User: anonymous   Login
Location: Twentynine Palms Airport
(34.1316°N, 115.9458°W)
Time: 20:16:03
(UTC-07:00)
Language:

Oscar 19 - Orbit

View from above orbital plane
View from above orbital plane
View from above satellite
View from above satellite

Ground track
Ground track

The orbit data is extracted from the following two-line orbital elements,

1 20442U 90005G   16237.85034054  .00000006  00000-0  18157-4 0  9996
2 20442 098.5453 171.8447 0010867 307.4779 052.5416 14.32826374389125
Epoch (UTC): 24 August 2016 20:24:29
Eccentricity: 0.0010867
inclination: 98.5453°
perigee height: 774 km
apogee height: 790 km
right ascension of ascending node: 171.8447°
argument of perigee: 307.4779°
revolutions per day: 14.32826374
mean anomaly at epoch: 52.5416°
orbit number at epoch: 38912

The dashed part of the orbit path shows where the satellite is in the earth's shadow,  

DLR